Regional Weather Roundup
Issued by NWS

Home | Current Version | Previous Version | Graphics & Text | Print | Product List | Glossary On
Versions: 1 2 3 4 5 6 7 8 9 10 11 12 13 14 15 16 17 18 19 20 21 22 23 24 25 26 27 28 29 30 31 32 33 34 35 36 37 38 39 40 41 42 43 44 45 46 47 48 49 50
000
ASUS43 KIND 200159
RWRIN

WEATHER ROUNDUP FOR INDIANA
NATIONAL WEATHER SERVICE INDIANAPOLIS IN
900 PM EST FRI DEC 19 2014

NOTE: "FAIR" INDICATES FEW OR NO CLOUDS BELOW 12,000 FEET WITH NO
SIGNIFICANT WEATHER AND/OR OBSTRUCTIONS TO VISIBILITY.

* - STATION DOES NOT REPORT WEATHER SUCH AS PRECIPITATION OR FOG.

+ - STATION NOT QUALITY CONTROLLED BY THE NATIONAL WEATHER SERVICE.
    USE DATA WITH CAUTION...ESPECIALLY DEWPOINT AND RELATIVE
    HUMIDITY OBSERVATIONS.

INZ001>003-010>013-019-020-200300-
NORTHWEST INDIANA

CITY           SKY/WX    TMP DP  RH WIND       PRES   REMARKS
GARY /AIRPORT/ CLOUDY    34  23  64 CALM      30.29F
VALPARAISO     NOT AVBL

$$

LMZ046-743>745-200300-
SOUTHERN LAKE MICHIGAN

STATION/POSITION TIME  TEMP WIND        PRES
                       AIR  DIR/SP/G
                 (UTC) (F)  (DEG/KT/KT) (MB)

$$

INZ004-005-014>016-021>024-200300-
NORTH CENTRAL INDIANA

CITY           SKY/WX    TMP DP  RH WIND       PRES   REMARKS
GOSHEN         CLOUDY    29  23  78 NE3       30.26F
SOUTH BEND     CLOUDY    32  25  75 N3        30.27F

$$

INZ006>009-017-018-025>027-200300-
NORTHEAST INDIANA

CITY           SKY/WX    TMP DP  RH WIND       PRES   REMARKS
ANGOLA *+      CLEAR     19  18  93 CALM      30.25F
FORT WAYNE     CLOUDY    29  24  82 E5        30.29S WCI  24

$$

INZ028-029-035-036-043>045-051>053-200300-
WEST CENTRAL INDIANA

CITY           SKY/WX    TMP DP  RH WIND       PRES   REMARKS
GREENCASTLE +  CLOUDY    30  23  74 E3        30.28F
LAFAYETTE      CLOUDY    28  27  96 CALM      30.29F
TERRE HAUTE    CLOUDY    31  24  75 E6        30.28F WCI  25

$$

INZ030>032-037>040-046>048-054>057-064-065-200300-
CENTRAL INDIANA

CITY           SKY/WX    TMP DP  RH WIND       PRES   REMARKS
COLUMBUS       CLOUDY    28  27  93 CALM      30.30F
INDIANAPOLIS   CLOUDY    29  24  82 NE3       30.27F
-EAGLE CREEK   CLOUDY    29  25  85 CALM      30.27F
KOKOMO *+      CLOUDY    30  27  86 W5        30.28F WCI  25
MT COMFORT *+  CLOUDY    28  23  80 CALM      30.29S
SHELBYVILLE    CLOUDY    31  24  75 CALM      30.29S

$$

INZ033-034-041-042-049-050-058-059-200300-
EAST CENTRAL INDIANA

CITY           SKY/WX    TMP DP  RH WIND       PRES   REMARKS
MUNCIE         CLOUDY    29  25  85 W3        30.28S

$$

INZ060-061-067>069-081>083-085>088-200300-
SOUTHWEST INDIANA

CITY           SKY/WX    TMP DP  RH WIND       PRES   REMARKS
EVANSVILLE     CLOUDY    33  25  72 CALM      30.29F
HUNTINGBURG *+ CLOUDY    30  21  69 NE6       30.28S WCI  24

$$

INZ062-063-066-070>080-084-089>092-200300-
SOUTH CENTRAL AND SOUTHEAST INDIANA

CITY           SKY/WX    TMP DP  RH WIND       PRES   REMARKS
BLOOMINGTON    CLOUDY    31  23  72 E7        30.26F WCI  24

$$



USA.gov is the U.S. government's official web portal to all federal, state and local government web resources and services.